Year,Month,Day,Hour,Minute,Value (Times are PST for temperature in C)
2015,07,06,00,00,17.90
2015,07,06,00,01,17.80
2015,07,06,00,02,17.80
2015,07,06,00,03,17.80
2015,07,06,00,04,17.80
2015,07,06,00,05,17.80
2015,07,06,00,06,17.80
2015,07,06,00,07,17.80
2015,07,06,00,08,17.80
2015,07,06,00,09,17.80
2015,07,06,00,10,17.80
2015,07,06,00,11,17.80
2015,07,06,00,12,17.80
2015,07,06,00,13,17.80
2015,07,06,00,14,17.80
2015,07,06,00,15,17.80
2015,07,06,00,16,17.80
2015,07,06,00,17,17.80
2015,07,06,00,18,17.80
2015,07,06,00,19,17.80
2015,07,06,00,20,17.80
2015,07,06,00,21,17.80
2015,07,06,00,22,17.80
2015,07,06,00,23,17.80
2015,07,06,00,24,17.80
2015,07,06,00,25,17.80
2015,07,06,00,26,17.80
2015,07,06,00,27,17.80
2015,07,06,00,28,17.80
2015,07,06,00,29,17.80
2015,07,06,00,30,17.80
2015,07,06,00,31,17.80
2015,07,06,00,32,17.80
2015,07,06,00,33,17.80
2015,07,06,00,34,17.80
2015,07,06,00,35,17.80
2015,07,06,00,36,17.80
2015,07,06,00,37,17.80
2015,07,06,00,38,17.80
2015,07,06,00,39,17.80
2015,07,06,00,40,17.80
2015,07,06,00,41,17.80
2015,07,06,00,42,17.70
2015,07,06,00,43,17.70
2015,07,06,00,44,17.70
2015,07,06,00,45,17.70
2015,07,06,00,46,17.60
2015,07,06,00,47,17.60
2015,07,06,00,48,17.60
2015,07,06,00,49,17.50
2015,07,06,00,50,17.50
2015,07,06,00,51,17.40
2015,07,06,00,52,17.40
2015,07,06,00,53,17.40
2015,07,06,00,54,17.40
2015,07,06,00,55,17.40
2015,07,06,00,56,17.30
2015,07,06,00,57,17.30
2015,07,06,00,58,17.30
2015,07,06,00,59,17.30
2015,07,06,01,00,17.30
2015,07,06,01,01,17.30
2015,07,06,01,02,17.20
2015,07,06,01,03,17.20
2015,07,06,01,04,17.20
2015,07,06,01,05,17.20
2015,07,06,01,06,17.20
2015,07,06,01,07,17.20
2015,07,06,01,08,17.10
2015,07,06,01,09,17.10
2015,07,06,01,10,17.10
2015,07,06,01,11,17.10
2015,07,06,01,12,17.10
2015,07,06,01,13,17.10
2015,07,06,01,14,17.10
2015,07,06,01,15,17.00
2015,07,06,01,16,17.00
2015,07,06,01,17,17.00
2015,07,06,01,18,17.00
2015,07,06,01,19,17.00
2015,07,06,01,20,17.00
2015,07,06,01,21,17.00
2015,07,06,01,22,17.00
2015,07,06,01,23,17.00
2015,07,06,01,24,16.90
2015,07,06,01,25,16.90
2015,07,06,01,26,16.90
2015,07,06,01,27,16.90
2015,07,06,01,28,16.90
2015,07,06,01,29,16.90
2015,07,06,01,30,16.80
2015,07,06,01,31,16.80
2015,07,06,01,32,16.80
2015,07,06,01,33,16.80
2015,07,06,01,34,16.80
2015,07,06,01,35,16.70
2015,07,06,01,36,16.70
2015,07,06,01,37,16.70
2015,07,06,01,38,16.60
2015,07,06,01,39,16.60
2015,07,06,01,40,16.60
2015,07,06,01,41,16.60
2015,07,06,01,42,16.60
2015,07,06,01,43,16.60
2015,07,06,01,44,16.60
2015,07,06,01,45,16.60
2015,07,06,01,46,16.60
2015,07,06,01,47,16.60
2015,07,06,01,48,16.60
2015,07,06,01,49,16.60
2015,07,06,01,50,16.60
2015,07,06,01,51,16.60
2015,07,06,01,52,16.60
2015,07,06,01,53,16.60
2015,07,06,01,54,16.60
2015,07,06,01,55,16.60
2015,07,06,01,56,16.60
2015,07,06,01,57,16.60
2015,07,06,01,58,16.60
2015,07,06,01,59,16.60
2015,07,06,02,00,16.60
2015,07,06,02,01,16.60
2015,07,06,02,02,16.60
2015,07,06,02,03,16.60
2015,07,06,02,04,16.60
2015,07,06,02,05,16.60
2015,07,06,02,06,16.60
2015,07,06,02,07,16.60
2015,07,06,02,08,16.60
2015,07,06,02,09,16.60
2015,07,06,02,10,16.60
2015,07,06,02,11,16.60
2015,07,06,02,12,16.50
2015,07,06,02,13,16.50
2015,07,06,02,14,16.50
2015,07,06,02,15,16.50
2015,07,06,02,16,16.50
2015,07,06,02,17,16.40
2015,07,06,02,18,16.40
2015,07,06,02,19,16.40
2015,07,06,02,20,16.40
2015,07,06,02,21,16.40
2015,07,06,02,22,16.40
2015,07,06,02,23,16.40
2015,07,06,02,24,16.40
2015,07,06,02,25,16.40
2015,07,06,02,26,16.40
2015,07,06,02,27,16.30
2015,07,06,02,28,16.30
2015,07,06,02,29,16.30
2015,07,06,02,30,16.30
2015,07,06,02,31,16.30
2015,07,06,02,32,16.30
2015,07,06,02,33,16.30
2015,07,06,02,34,16.30
2015,07,06,02,35,16.20
2015,07,06,02,36,16.20
2015,07,06,02,37,16.20
2015,07,06,02,38,16.20
2015,07,06,02,39,16.20
2015,07,06,02,40,16.10
2015,07,06,02,41,16.10
2015,07,06,02,42,16.10
2015,07,06,02,43,16.00
2015,07,06,02,44,16.00
2015,07,06,02,45,15.90
2015,07,06,02,46,15.90
2015,07,06,02,47,15.90
2015,07,06,02,48,15.90
2015,07,06,02,49,15.90
2015,07,06,02,50,15.80
2015,07,06,02,51,15.80
2015,07,06,02,52,15.80
2015,07,06,02,53,15.80
2015,07,06,02,54,15.80
2015,07,06,02,55,15.80
2015,07,06,02,56,15.80
2015,07,06,02,57,15.80
2015,07,06,02,58,15.80
2015,07,06,02,59,15.70
2015,07,06,03,00,15.70
2015,07,06,03,01,15.70
2015,07,06,03,02,15.70
2015,07,06,03,03,15.70
2015,07,06,03,04,15.70
2015,07,06,03,05,15.70
2015,07,06,03,06,15.70
2015,07,06,03,07,15.70
2015,07,06,03,08,15.70
2015,07,06,03,09,15.70
2015,07,06,03,10,15.70
2015,07,06,03,11,15.70
2015,07,06,03,12,15.70
2015,07,06,03,13,15.70
2015,07,06,03,14,15.70
2015,07,06,03,15,15.70
2015,07,06,03,16,15.70
2015,07,06,03,17,15.70
2015,07,06,03,18,15.70
2015,07,06,03,19,15.70
2015,07,06,03,20,15.70
2015,07,06,03,21,15.70
2015,07,06,03,22,15.70
2015,07,06,03,23,15.70
2015,07,06,03,24,15.70
2015,07,06,03,25,15.80
2015,07,06,03,26,15.80
2015,07,06,03,27,15.80
2015,07,06,03,28,15.80
2015,07,06,03,29,15.80
2015,07,06,03,30,15.80
2015,07,06,03,31,15.80
2015,07,06,03,32,15.80
2015,07,06,03,33,15.80
2015,07,06,03,34,15.80
2015,07,06,03,35,15.90
2015,07,06,03,36,15.90
2015,07,06,03,37,15.90
2015,07,06,03,38,15.90
2015,07,06,03,39,16.00
2015,07,06,03,40,16.00
2015,07,06,03,41,16.00
2015,07,06,03,42,16.00
2015,07,06,03,43,16.00
2015,07,06,03,44,16.00
2015,07,06,03,45,15.90
2015,07,06,03,46,15.90
2015,07,06,03,47,15.90
2015,07,06,03,48,15.90
2015,07,06,03,49,15.90
2015,07,06,03,50,15.80
2015,07,06,03,51,15.80
2015,07,06,03,52,15.80
2015,07,06,03,53,15.80
2015,07,06,03,54,15.70
2015,07,06,03,55,15.70
2015,07,06,03,56,15.70
2015,07,06,03,57,15.70
2015,07,06,03,58,15.70
2015,07,06,03,59,15.60
2015,07,06,04,00,15.60
2015,07,06,04,01,15.60
2015,07,06,04,02,15.50
2015,07,06,04,03,15.50
2015,07,06,04,04,15.50
2015,07,06,04,05,15.50
2015,07,06,04,06,15.40
2015,07,06,04,07,15.40
2015,07,06,04,08,15.40
2015,07,06,04,09,15.40
2015,07,06,04,10,15.40
2015,07,06,04,11,15.50
2015,07,06,04,12,15.50
2015,07,06,04,13,15.50
2015,07,06,04,14,15.60
2015,07,06,04,15,15.60
2015,07,06,04,16,15.60
2015,07,06,04,17,15.60
2015,07,06,04,18,15.60
2015,07,06,04,19,15.50
2015,07,06,04,20,15.50
2015,07,06,04,21,15.50
2015,07,06,04,22,15.40
2015,07,06,04,23,15.40
2015,07,06,04,24,15.40
2015,07,06,04,25,15.40
2015,07,06,04,26,15.30
2015,07,06,04,27,15.30
2015,07,06,04,28,15.30
2015,07,06,04,29,15.20
2015,07,06,04,30,15.20
2015,07,06,04,31,15.20
2015,07,06,04,32,15.10
2015,07,06,04,33,15.00
2015,07,06,04,34,15.00
2015,07,06,04,35,15.00
2015,07,06,04,36,15.00
2015,07,06,04,37,15.00
2015,07,06,04,38,15.00
2015,07,06,04,39,15.00
2015,07,06,04,40,15.00
2015,07,06,04,41,15.00
2015,07,06,04,42,15.00
2015,07,06,04,43,15.00
2015,07,06,04,44,15.00
2015,07,06,04,45,15.00
2015,07,06,04,46,14.90
2015,07,06,04,47,14.90
2015,07,06,04,48,14.90
2015,07,06,04,49,14.80
2015,07,06,04,50,14.80
2015,07,06,04,51,14.80
2015,07,06,04,52,14.70
2015,07,06,04,53,14.70
2015,07,06,04,54,14.70
2015,07,06,04,55,14.60
2015,07,06,04,56,14.60
2015,07,06,04,57,14.60
2015,07,06,04,58,14.60
2015,07,06,04,59,14.50
2015,07,06,05,00,14.50
2015,07,06,05,01,14.50
2015,07,06,05,02,14.40
2015,07,06,05,03,14.40
2015,07,06,05,04,14.40
2015,07,06,05,05,14.40
2015,07,06,05,06,14.40
2015,07,06,05,07,14.40
2015,07,06,05,08,14.40
2015,07,06,05,09,14.30
2015,07,06,05,10,14.30
2015,07,06,05,11,14.30
2015,07,06,05,12,14.30
2015,07,06,05,13,14.30
2015,07,06,05,14,14.30
2015,07,06,05,15,14.20
2015,07,06,05,16,14.20
2015,07,06,05,17,14.20
2015,07,06,05,18,14.20
2015,07,06,05,19,14.20
2015,07,06,05,20,14.20
2015,07,06,05,21,14.20
2015,07,06,05,22,14.20
2015,07,06,05,23,14.20
2015,07,06,05,24,14.20
2015,07,06,05,25,14.20
2015,07,06,05,26,14.20
2015,07,06,05,27,14.20
2015,07,06,05,28,14.10
2015,07,06,05,29,14.10
2015,07,06,05,30,14.10
2015,07,06,05,31,14.10
2015,07,06,05,32,14.10
2015,07,06,05,33,14.10
2015,07,06,05,34,14.10
2015,07,06,05,35,14.10
2015,07,06,05,36,14.10
2015,07,06,05,37,14.20
2015,07,06,05,38,14.20
2015,07,06,05,39,14.20
2015,07,06,05,40,14.20
2015,07,06,05,41,14.20
2015,07,06,05,42,14.20
2015,07,06,05,43,14.20
2015,07,06,05,44,14.20
2015,07,06,05,45,14.20
2015,07,06,05,46,14.20
2015,07,06,05,47,14.30
2015,07,06,05,48,14.20
2015,07,06,05,49,14.20
2015,07,06,05,50,14.20
2015,07,06,05,51,14.20
2015,07,06,05,52,14.20
2015,07,06,05,53,14.20
2015,07,06,05,54,14.20
2015,07,06,05,55,14.20
2015,07,06,05,56,14.20
2015,07,06,05,57,14.20
2015,07,06,05,58,14.20
2015,07,06,05,59,14.20
2015,07,06,06,00,14.30
2015,07,06,06,01,14.30
2015,07,06,06,02,14.30
2015,07,06,06,03,14.40
2015,07,06,06,04,14.40
2015,07,06,06,05,14.40
2015,07,06,06,06,14.40
2015,07,06,06,07,14.40
2015,07,06,06,08,14.40
2015,07,06,06,09,14.40
2015,07,06,06,10,14.40
2015,07,06,06,11,14.40
2015,07,06,06,12,14.40
2015,07,06,06,13,14.40
2015,07,06,06,14,14.40
2015,07,06,06,15,14.40
2015,07,06,06,16,14.40
2015,07,06,06,17,14.40
2015,07,06,06,18,14.40
2015,07,06,06,19,14.40
2015,07,06,06,20,14.30
2015,07,06,06,21,14.30
2015,07,06,06,22,14.30
2015,07,06,06,23,14.30
2015,07,06,06,24,14.20
2015,07,06,06,25,14.20
2015,07,06,06,26,14.20
2015,07,06,06,27,14.20
2015,07,06,06,28,14.20
2015,07,06,06,29,14.20
2015,07,06,06,30,14.10
2015,07,06,06,31,14.10
2015,07,06,06,32,14.10
2015,07,06,06,33,14.10
2015,07,06,06,34,14.10
2015,07,06,06,35,14.10
2015,07,06,06,36,14.10
2015,07,06,06,37,14.10
2015,07,06,06,38,14.10
2015,07,06,06,39,14.10
2015,07,06,06,40,14.10
2015,07,06,06,41,14.10
2015,07,06,06,42,14.10
2015,07,06,06,43,14.10
2015,07,06,06,44,14.10
2015,07,06,06,45,14.20
2015,07,06,06,46,14.20
2015,07,06,06,47,14.20
2015,07,06,06,48,14.20
2015,07,06,06,49,14.20
2015,07,06,06,50,14.30
2015,07,06,06,51,14.40
2015,07,06,06,52,14.40
2015,07,06,06,53,14.50
2015,07,06,06,54,14.60
2015,07,06,06,55,14.60
2015,07,06,06,56,14.70
2015,07,06,06,57,14.70
2015,07,06,06,58,14.70
2015,07,06,06,59,14.70
2015,07,06,07,00,14.80
2015,07,06,07,01,14.80
2015,07,06,07,02,14.80
2015,07,06,07,03,14.90
2015,07,06,07,04,14.90
2015,07,06,07,05,14.90
2015,07,06,07,06,14.90
2015,07,06,07,07,15.00
2015,07,06,07,08,15.00
2015,07,06,07,09,15.00
2015,07,06,07,10,15.00
2015,07,06,07,11,15.00
2015,07,06,07,12,15.00
2015,07,06,07,13,15.00
2015,07,06,07,14,15.00
2015,07,06,07,15,15.00
2015,07,06,07,16,15.00
2015,07,06,07,17,15.00
2015,07,06,07,18,15.00
2015,07,06,07,19,15.00
2015,07,06,07,20,15.00
2015,07,06,07,21,15.00
2015,07,06,07,22,15.00
2015,07,06,07,23,15.00
2015,07,06,07,24,15.00
2015,07,06,07,25,15.00
2015,07,06,07,26,15.00
2015,07,06,07,27,15.00
2015,07,06,07,28,15.00
2015,07,06,07,29,15.00
2015,07,06,07,30,15.00
2015,07,06,07,31,15.10
2015,07,06,07,32,15.00
2015,07,06,07,33,15.10
2015,07,06,07,34,15.10
2015,07,06,07,35,15.10
2015,07,06,07,36,15.10
2015,07,06,07,37,15.20
2015,07,06,07,38,15.20
2015,07,06,07,39,15.20
2015,07,06,07,40,15.20
2015,07,06,07,41,15.20
2015,07,06,07,42,15.20
2015,07,06,07,43,15.20
2015,07,06,07,44,15.30
2015,07,06,07,45,15.30
2015,07,06,07,46,15.30
2015,07,06,07,47,15.30
2015,07,06,07,48,15.40
2015,07,06,07,49,15.40
2015,07,06,07,50,15.40
2015,07,06,07,51,15.40
2015,07,06,07,52,15.40
2015,07,06,07,53,15.40
2015,07,06,07,54,15.40
2015,07,06,07,55,15.40
2015,07,06,07,56,15.40
2015,07,06,07,57,15.50
2015,07,06,07,58,15.50
2015,07,06,07,59,15.50
2015,07,06,08,00,15.50
2015,07,06,08,01,15.60
2015,07,06,08,02,15.60
2015,07,06,08,03,15.60
2015,07,06,08,04,15.70
2015,07,06,08,05,15.70
2015,07,06,08,06,15.80
2015,07,06,08,07,15.80
2015,07,06,08,08,15.80
2015,07,06,08,09,15.80
2015,07,06,08,10,15.90
2015,07,06,08,11,15.90
2015,07,06,08,12,15.90
2015,07,06,08,13,15.90
2015,07,06,08,14,16.00
2015,07,06,08,15,16.00
2015,07,06,08,16,16.00
2015,07,06,08,17,16.00
2015,07,06,08,18,16.00
2015,07,06,08,19,16.00
2015,07,06,08,20,16.10
2015,07,06,08,21,16.10
2015,07,06,08,22,16.10
2015,07,06,08,23,16.10
2015,07,06,08,24,16.10
2015,07,06,08,25,16.20
2015,07,06,08,26,16.20
2015,07,06,08,27,16.20
2015,07,06,08,28,16.20
2015,07,06,08,29,16.20
2015,07,06,08,30,16.30
2015,07,06,08,31,16.30
2015,07,06,08,32,16.40
2015,07,06,08,33,16.40
2015,07,06,08,34,16.40
2015,07,06,08,35,16.40
2015,07,06,08,36,16.40
2015,07,06,08,37,16.50
2015,07,06,08,38,16.50
2015,07,06,08,39,16.60
2015,07,06,08,40,16.60
2015,07,06,08,41,16.60
2015,07,06,08,42,16.60
2015,07,06,08,43,16.70
2015,07,06,08,44,16.70
2015,07,06,08,45,16.80
2015,07,06,08,46,16.80
2015,07,06,08,47,16.80
2015,07,06,08,48,16.90
2015,07,06,08,49,16.90
2015,07,06,08,50,17.00
2015,07,06,08,51,17.00
2015,07,06,08,52,17.10
2015,07,06,08,53,17.20
2015,07,06,08,54,17.20
2015,07,06,08,55,17.30
2015,07,06,08,56,17.30
2015,07,06,08,57,17.30
2015,07,06,08,58,17.40
2015,07,06,08,59,17.40
2015,07,06,09,00,17.40
2015,07,06,09,01,17.50
2015,07,06,09,02,17.50
2015,07,06,09,03,17.60
2015,07,06,09,04,17.60
2015,07,06,09,05,17.70
2015,07,06,09,06,17.80
2015,07,06,09,07,17.80
2015,07,06,09,08,17.90
2015,07,06,09,09,18.00
2015,07,06,09,10,18.10
2015,07,06,09,11,18.20
2015,07,06,09,12,18.30
2015,07,06,09,13,18.30
2015,07,06,09,14,18.40
2015,07,06,09,15,18.40
2015,07,06,09,16,18.50
2015,07,06,09,17,18.50
2015,07,06,09,18,18.50
2015,07,06,09,19,18.50
2015,07,06,09,20,18.50
2015,07,06,09,21,18.60
2015,07,06,09,22,18.60
2015,07,06,09,23,18.60
2015,07,06,09,24,18.70
2015,07,06,09,25,18.70
2015,07,06,09,26,18.70
2015,07,06,09,27,18.80
2015,07,06,09,28,18.80
2015,07,06,09,29,18.80
2015,07,06,09,30,18.80
2015,07,06,09,31,18.80
2015,07,06,09,32,18.90
2015,07,06,09,33,18.90
2015,07,06,09,34,18.90
2015,07,06,09,35,18.90
2015,07,06,09,36,19.00
2015,07,06,09,37,19.00
2015,07,06,09,38,19.00
2015,07,06,09,39,19.10
2015,07,06,09,40,19.10
2015,07,06,09,41,19.20
2015,07,06,09,42,19.30
2015,07,06,09,43,19.30
2015,07,06,09,44,19.30
2015,07,06,09,45,19.30
2015,07,06,09,46,19.20
2015,07,06,09,47,19.20
2015,07,06,09,48,19.20
2015,07,06,09,49,19.20
2015,07,06,09,50,19.20
2015,07,06,09,51,19.20
2015,07,06,09,52,19.20
2015,07,06,09,53,19.20
2015,07,06,09,54,19.20
2015,07,06,09,55,19.20
2015,07,06,09,56,19.20
2015,07,06,09,57,19.20
2015,07,06,09,58,19.30
2015,07,06,09,59,19.30
2015,07,06,10,00,19.40
2015,07,06,10,01,19.50
2015,07,06,10,02,19.60
2015,07,06,10,03,19.60
2015,07,06,10,04,19.60
2015,07,06,10,05,19.60
2015,07,06,10,06,19.60
2015,07,06,10,07,19.60
2015,07,06,10,08,19.60
2015,07,06,10,09,19.60
2015,07,06,10,10,19.70
2015,07,06,10,11,19.60
2015,07,06,10,12,19.70
2015,07,06,10,13,19.70
2015,07,06,10,14,19.70
2015,07,06,10,15,19.70
2015,07,06,10,16,19.70
2015,07,06,10,17,19.70
2015,07,06,10,18,19.70
2015,07,06,10,19,19.70
2015,07,06,10,20,19.80
2015,07,06,10,21,19.90
2015,07,06,10,22,19.90
2015,07,06,10,23,19.90
2015,07,06,10,24,20.00
2015,07,06,10,25,20.00
2015,07,06,10,26,20.00
2015,07,06,10,27,20.00
2015,07,06,10,28,20.00
2015,07,06,10,29,20.10
2015,07,06,10,30,20.10
2015,07,06,10,31,20.10
2015,07,06,10,32,20.10
2015,07,06,10,33,20.10
2015,07,06,10,34,20.10
2015,07,06,10,35,20.10
2015,07,06,10,36,20.10
2015,07,06,10,37,20.10
2015,07,06,10,38,20.00
2015,07,06,10,39,20.00
2015,07,06,10,40,19.90
2015,07,06,10,41,19.90
2015,07,06,10,42,19.90
2015,07,06,10,43,19.90
2015,07,06,10,44,19.90
2015,07,06,10,45,19.90
2015,07,06,10,46,19.90
2015,07,06,10,47,20.00
2015,07,06,10,48,20.00
2015,07,06,10,49,20.00
2015,07,06,10,50,20.00
2015,07,06,10,51,19.90
2015,07,06,10,52,19.90
2015,07,06,10,53,19.90
2015,07,06,10,54,19.90
2015,07,06,10,55,19.90
2015,07,06,10,56,20.00
2015,07,06,10,57,19.90
2015,07,06,10,58,19.90
2015,07,06,10,59,19.90
2015,07,06,11,00,19.90
2015,07,06,11,01,19.90
2015,07,06,11,02,19.90
2015,07,06,11,03,19.90
2015,07,06,11,04,19.90
2015,07,06,11,05,19.90
2015,07,06,11,06,19.90
2015,07,06,11,07,20.00
2015,07,06,11,08,20.00
2015,07,06,11,09,19.90
2015,07,06,11,10,19.90
2015,07,06,11,11,19.90
2015,07,06,11,12,20.00
2015,07,06,11,13,20.00
2015,07,06,11,14,20.00
2015,07,06,11,15,20.10
2015,07,06,11,16,20.10
2015,07,06,11,17,20.20
2015,07,06,11,18,20.20
2015,07,06,11,19,20.20
2015,07,06,11,20,20.20
2015,07,06,11,21,20.20
2015,07,06,11,22,20.20
2015,07,06,11,23,20.20
2015,07,06,11,24,20.30
2015,07,06,11,25,20.30
2015,07,06,11,26,20.40
2015,07,06,11,27,20.40
2015,07,06,11,28,20.40
2015,07,06,11,29,20.50
2015,07,06,11,30,20.50
2015,07,06,11,31,20.60
2015,07,06,11,32,20.70
2015,07,06,11,33,20.80
2015,07,06,11,34,20.90
2015,07,06,11,35,21.00
2015,07,06,11,36,21.10
2015,07,06,11,37,21.20
2015,07,06,11,38,21.20
2015,07,06,11,39,21.20
2015,07,06,11,40,21.20
2015,07,06,11,41,21.10
2015,07,06,11,42,21.00
2015,07,06,11,43,20.90
2015,07,06,11,44,20.80
2015,07,06,11,45,20.80
2015,07,06,11,46,20.90
2015,07,06,11,47,20.90
2015,07,06,11,48,20.90
2015,07,06,11,49,20.90
2015,07,06,11,50,20.90
2015,07,06,11,51,20.80
2015,07,06,11,52,20.70
2015,07,06,11,53,20.70
2015,07,06,11,54,20.80
2015,07,06,11,55,20.80
2015,07,06,11,56,20.80
2015,07,06,11,57,20.80
2015,07,06,11,58,20.80
2015,07,06,11,59,20.80
2015,07,06,12,00,20.80
2015,07,06,12,01,20.80
2015,07,06,12,02,20.90
2015,07,06,12,03,20.90
2015,07,06,12,04,20.90
2015,07,06,12,05,21.00
2015,07,06,12,06,21.10
2015,07,06,12,07,21.10
2015,07,06,12,08,21.10
2015,07,06,12,09,21.10
2015,07,06,12,10,21.10
2015,07,06,12,11,21.10
2015,07,06,12,12,21.10
2015,07,06,12,13,21.00
2015,07,06,12,14,20.90
2015,07,06,12,15,20.90
2015,07,06,12,16,20.80
2015,07,06,12,17,20.70
2015,07,06,12,18,20.70
2015,07,06,12,19,20.70
2015,07,06,12,20,20.70
2015,07,06,12,21,20.80
2015,07,06,12,22,20.80
2015,07,06,12,23,20.80
2015,07,06,12,24,20.80
2015,07,06,12,25,20.80
2015,07,06,12,26,20.80
2015,07,06,12,27,20.80
2015,07,06,12,28,20.90
2015,07,06,12,29,20.90
2015,07,06,12,30,21.00
2015,07,06,12,31,21.10
2015,07,06,12,32,21.20
2015,07,06,12,33,21.20
2015,07,06,12,34,21.10
2015,07,06,12,35,21.10
2015,07,06,12,36,21.00
2015,07,06,12,37,21.00
2015,07,06,12,38,21.00
2015,07,06,12,39,20.90
2015,07,06,12,40,20.90
2015,07,06,12,41,20.90
2015,07,06,12,42,20.90
2015,07,06,12,43,20.90
2015,07,06,12,44,20.90
2015,07,06,12,45,21.00
2015,07,06,12,46,21.10
2015,07,06,12,47,21.10
2015,07,06,12,48,21.10
2015,07,06,12,49,21.10
2015,07,06,12,50,21.20
2015,07,06,12,51,21.10
2015,07,06,12,52,21.10
2015,07,06,12,53,21.10
2015,07,06,12,54,21.10
2015,07,06,12,55,21.10
2015,07,06,12,56,21.20
2015,07,06,12,57,21.20
2015,07,06,12,58,21.20
2015,07,06,12,59,21.10
2015,07,06,13,00,21.10
2015,07,06,13,01,21.10
2015,07,06,13,02,21.00
2015,07,06,13,03,20.90
2015,07,06,13,04,21.00
2015,07,06,13,05,21.00
2015,07,06,13,06,21.10
2015,07,06,13,07,21.10
2015,07,06,13,08,21.10
2015,07,06,13,09,21.10
2015,07,06,13,10,21.20
2015,07,06,13,11,21.30
2015,07,06,13,12,21.40
2015,07,06,13,13,21.40
2015,07,06,13,14,21.40
2015,07,06,13,15,21.50
2015,07,06,13,16,21.50
2015,07,06,13,17,21.50
2015,07,06,13,18,21.50
2015,07,06,13,19,21.50
2015,07,06,13,20,21.50
2015,07,06,13,21,21.50
2015,07,06,13,22,21.60
2015,07,06,13,23,21.60
2015,07,06,13,24,21.70
2015,07,06,13,25,21.80
2015,07,06,13,26,21.80
2015,07,06,13,27,21.90
2015,07,06,13,28,21.90
2015,07,06,13,29,22.00
2015,07,06,13,30,22.00
2015,07,06,13,31,22.10
2015,07,06,13,32,22.20
2015,07,06,13,33,22.20
2015,07,06,13,34,22.30
2015,07,06,13,35,22.40
2015,07,06,13,36,22.50
2015,07,06,13,37,22.60
2015,07,06,13,38,22.70
2015,07,06,13,39,22.80
2015,07,06,13,40,22.80
2015,07,06,13,41,22.80
2015,07,06,13,42,22.90
2015,07,06,13,43,23.00
2015,07,06,13,44,23.10
2015,07,06,13,45,23.20
2015,07,06,13,46,23.30
2015,07,06,13,47,23.40
2015,07,06,13,48,23.40
2015,07,06,13,49,23.50
2015,07,06,13,50,23.60
2015,07,06,13,51,23.60
2015,07,06,13,52,23.70
2015,07,06,13,53,23.80
2015,07,06,13,54,23.80
2015,07,06,13,55,23.80
2015,07,06,13,56,23.80
2015,07,06,13,57,23.80
2015,07,06,13,58,23.80
2015,07,06,13,59,23.80
2015,07,06,14,00,23.80
2015,07,06,14,01,23.90
2015,07,06,14,02,24.00
2015,07,06,14,03,24.10
2015,07,06,14,04,24.10
2015,07,06,14,05,24.20
2015,07,06,14,06,24.30
2015,07,06,14,07,24.30
2015,07,06,14,08,24.40
2015,07,06,14,09,24.40
2015,07,06,14,10,24.40
2015,07,06,14,11,24.40
2015,07,06,14,12,24.40
2015,07,06,14,13,24.30
2015,07,06,14,14,24.30
2015,07,06,14,15,24.30
2015,07,06,14,16,24.30
2015,07,06,14,17,24.20
2015,07,06,14,18,24.10
2015,07,06,14,19,24.10
2015,07,06,14,20,24.10
2015,07,06,14,21,24.10
2015,07,06,14,22,24.00
2015,07,06,14,23,23.80
2015,07,06,14,24,23.60
2015,07,06,14,25,23.40
2015,07,06,14,26,23.30
2015,07,06,14,27,23.20
2015,07,06,14,28,23.10
2015,07,06,14,29,23.00
2015,07,06,14,30,23.00
2015,07,06,14,31,23.00
2015,07,06,14,32,23.00
2015,07,06,14,33,23.10
2015,07,06,14,34,23.00
2015,07,06,14,35,22.90
2015,07,06,14,36,22.90
2015,07,06,14,37,22.80
2015,07,06,14,38,22.80
2015,07,06,14,39,22.80
2015,07,06,14,40,22.80
2015,07,06,14,41,22.90
2015,07,06,14,42,22.90
2015,07,06,14,43,23.00
2015,07,06,14,44,23.20
2015,07,06,14,45,23.40
2015,07,06,14,46,23.50
2015,07,06,14,47,23.60
2015,07,06,14,48,23.70
2015,07,06,14,49,23.70
2015,07,06,14,50,23.70
2015,07,06,14,51,23.70
2015,07,06,14,52,23.70
2015,07,06,14,53,23.70
2015,07,06,14,54,23.80
2015,07,06,14,55,23.80
2015,07,06,14,56,23.80
2015,07,06,14,57,23.80
2015,07,06,14,58,23.80
2015,07,06,14,59,23.80
2015,07,06,15,00,23.80
2015,07,06,15,01,23.80
2015,07,06,15,02,23.70
2015,07,06,15,03,23.60
2015,07,06,15,04,23.60
2015,07,06,15,05,23.60
2015,07,06,15,06,23.70
2015,07,06,15,07,23.60
2015,07,06,15,08,23.60
2015,07,06,15,09,23.50
2015,07,06,15,10,23.40
2015,07,06,15,11,23.40
2015,07,06,15,12,23.30
2015,07,06,15,13,23.30
2015,07,06,15,14,23.30
2015,07,06,15,15,23.30
2015,07,06,15,16,23.40
2015,07,06,15,17,23.50
2015,07,06,15,18,23.50
2015,07,06,15,19,23.60
2015,07,06,15,20,23.60
2015,07,06,15,21,23.70
2015,07,06,15,22,23.80
2015,07,06,15,23,24.00
2015,07,06,15,24,24.10
2015,07,06,15,25,24.30
2015,07,06,15,26,24.30
2015,07,06,15,27,24.40
2015,07,06,15,28,24.40
2015,07,06,15,29,24.30
2015,07,06,15,30,24.30
2015,07,06,15,31,24.30
2015,07,06,15,32,24.40
2015,07,06,15,33,24.40
2015,07,06,15,34,24.40
2015,07,06,15,35,24.40
2015,07,06,15,36,24.50
2015,07,06,15,37,24.50
2015,07,06,15,38,24.70
2015,07,06,15,39,24.70
2015,07,06,15,40,24.70
2015,07,06,15,41,24.70
2015,07,06,15,42,24.70
2015,07,06,15,43,24.70
2015,07,06,15,44,24.80
2015,07,06,15,45,24.80
2015,07,06,15,46,24.90
2015,07,06,15,47,24.90
2015,07,06,15,48,25.00
2015,07,06,15,49,25.00
2015,07,06,15,50,25.00
2015,07,06,15,51,25.00
2015,07,06,15,52,25.00
2015,07,06,15,53,25.10
2015,07,06,15,54,25.00
2015,07,06,15,55,25.10
2015,07,06,15,56,25.00
2015,07,06,15,57,25.00
2015,07,06,15,58,25.00
2015,07,06,15,59,25.00
2015,07,06,16,00,25.00
2015,07,06,16,01,25.00
2015,07,06,16,02,25.00
2015,07,06,16,03,25.10
2015,07,06,16,04,25.10
2015,07,06,16,05,25.20
2015,07,06,16,06,25.30
2015,07,06,16,07,25.40
2015,07,06,16,08,25.50
2015,07,06,16,09,25.50
2015,07,06,16,10,25.60
2015,07,06,16,11,25.70
2015,07,06,16,12,25.70
2015,07,06,16,13,25.70
2015,07,06,16,14,25.60
2015,07,06,16,15,25.60
2015,07,06,16,16,25.50
2015,07,06,16,17,25.50
2015,07,06,16,18,25.50
2015,07,06,16,19,25.40
2015,07,06,16,20,25.40
2015,07,06,16,21,25.40
2015,07,06,16,22,25.50
2015,07,06,16,23,25.50
2015,07,06,16,24,25.60
2015,07,06,16,25,25.60
2015,07,06,16,26,25.60
2015,07,06,16,27,25.60
2015,07,06,16,28,25.50
2015,07,06,16,29,25.60
2015,07,06,16,30,25.60
2015,07,06,16,31,25.70
2015,07,06,16,32,25.80
2015,07,06,16,33,25.80
2015,07,06,16,34,25.80
2015,07,06,16,35,25.90
2015,07,06,16,36,25.90
2015,07,06,16,37,25.90
2015,07,06,16,38,25.80
2015,07,06,16,39,25.80
2015,07,06,16,40,25.80
2015,07,06,16,41,25.80
2015,07,06,16,42,25.80
2015,07,06,16,43,25.80
2015,07,06,16,44,25.80
2015,07,06,16,45,25.80
2015,07,06,16,46,25.80
2015,07,06,16,47,25.80
2015,07,06,16,48,25.80
2015,07,06,16,49,25.80
2015,07,06,16,50,25.80
2015,07,06,16,51,25.80
2015,07,06,16,52,25.80
2015,07,06,16,53,25.90
2015,07,06,16,54,25.90
2015,07,06,16,55,25.90
2015,07,06,16,56,25.90
2015,07,06,16,57,25.90
2015,07,06,16,58,25.90
2015,07,06,16,59,26.00
2015,07,06,17,00,26.10
2015,07,06,17,01,26.10
2015,07,06,17,02,26.10
2015,07,06,17,03,26.10
2015,07,06,17,04,26.20
2015,07,06,17,05,26.10
2015,07,06,17,06,26.10
2015,07,06,17,07,26.00
2015,07,06,17,08,26.00
2015,07,06,17,09,26.00
2015,07,06,17,10,26.00
2015,07,06,17,11,26.00
2015,07,06,17,12,26.00
2015,07,06,17,13,26.10
2015,07,06,17,14,26.10
2015,07,06,17,15,26.20
2015,07,06,17,16,26.20
2015,07,06,17,17,26.30
2015,07,06,17,18,26.30
2015,07,06,17,19,26.30